{"data":{"norad_id":54657,"epoch":"2026-05-25T05:19:51.852288Z","epoch_age_seconds":45960,"freshness":"FRESH","line1":"1 54657U 22166R   26145.22212792  .00000077  00000+0  15594-3 0  9999","line2":"2 54657  87.9251 248.5556 0002018 102.0816 258.0544 13.21824865168525","mean_motion":13.21824865,"eccentricity":0.0002018,"inclination_deg":87.9251,"raan_deg":248.5556,"arg_perigee_deg":102.0816,"mean_anomaly_deg":258.0544,"bstar":0.00015594,"rev_number":16852,"period_min":108.94030201195,"perigee_km":1176.232914119,"apogee_km":1179.2824732174,"semimajor_km":7555.8946936682,"source":"CELESTRAK","updated_at":"2026-05-25T13:38:22.631829Z"}}